This demonstration page uses our WeatherBlox Daily Observations layout. Learn more.

Left ArrowRight Arrow

38.20091, -84.87328

Hourly Observations for August 5, 2016

Temp ( °F °C ) Dew Point ( °F °C ) Humidity (%) Winds ( mph kmh ) Pressure ( in mb ) Visibility ( mi km ) Precip ( " mm )
12:53 am 00:53 Clear 73 22.8 70 21.1 90 90 Calm 29.94 1014 9 14 0.00 0.00
1:53 am 01:53 Clear 73 22.8 70 21.1 90 90 Calm 29.93 1014 9 14 0.00 0.00
2:53 am 02:53 Clear 72 22.2 69 20.6 91 91 Calm 29.91 1013 7 11 0.00 0.00
3:29 am 03:29 Clear with Mist and Fog 72 22.2 69 20.6 91 91 Calm 29.91 1013 2 3 0.00 0.00
3:39 am 03:39 Clear with Mist and Fog 72 22.2 69 20.6 91 91 ESE 3 6 29.91 1013 3 5 0.00 0.00
3:53 am 03:53 Clear 71 21.7 69 20.6 94 94 ESE 3 6 29.91 1013 7 11 0.00 0.00
4:11 am 04:11 Mostly Clear with Mist and Fog 72 22.2 69 20.6 91 91 Calm 29.91 1013 6 10 0.00 0.00
4:51 am 04:51 Mostly Cloudy with Mist and Fog 71 21.7 69 20.6 94 94 Calm 29.90 1012 2 2 0.00 0.00
5:09 am 05:09 Mostly Cloudy with Mist and Fog 70 21.1 68 20 93 93 Calm 29.88 1012 2 3 0.00 0.00
5:18 am 05:18 Mostly Cloudy with Mist and Fog 70 21.1 67 19.4 90 90 Calm 29.88 1012 1 2 0.00 0.00
5:25 am 05:25 Mostly Cloudy with Mist and Fog 70 21.1 68 20 93 93 Calm 29.88 1012 2 3 0.00 0.00
5:50 am 05:50 Cloudy with Mist and Fog 72 22 68 20 88 88 Calm 29.91 1013 2 2 0.00 0.00
5:53 am 05:53 Cloudy with Mist and Fog 71 21.7 68 20 90 90 Calm 29.91 1013 1 2 0.00 0.00
6:01 am 06:01 Cloudy with Fog 70 21.1 68 20 93 93 Calm 29.91 1013 1 1 0.00 0.00
6:09 am 06:09 Cloudy with Mist and Fog 70 21.1 68 20 93 93 Calm 29.91 1013 1 2 0.00 0.00
6:13 am 06:13 Cloudy with Mist and Fog 70 21.1 68 20 93 93 Calm 29.91 1013 4 6 0.00 0.00
6:53 am 06:53 Cloudy 71 21.7 69 20.6 94 94 SE 3 6 29.93 1014 7 11 0.00 0.00
7:31 am 07:31 Cloudy with Mist and Fog 72 22.2 70 21.1 94 94 S 3 6 29.94 1014 2 3 0.00 0.00
7:43 am 07:43 Cloudy with Mist and Fog 72 22.2 70 21.1 94 94 Calm 29.94 1014 3 5 0.00 0.00
7:53 am 07:53 Cloudy with Mist and Fog 73 22.8 70 21.1 90 90 S 3 6 29.94 1014 5 8 0.00 0.00
8:15 am 08:15 Cloudy with Mist and Fog 73 22.8 70 21.1 90 90 SSE 5 7 29.91 1013 2 3 0.00 0.00
8:33 am 08:33 Cloudy with Mist and Fog 73 22.8 71 21.7 94 94 S 3 6 29.94 1014 3 5 0.00 0.00
8:53 am 08:53 Cloudy with Mist and Fog 73 22.8 71 21.7 94 94 Calm 29.94 1014 5 8 0.00 0.00
9:53 am 09:53 Cloudy 76 24.4 72 22.2 88 88 W 3 6 29.95 1014 8 13 0.00 0.00
10:11 am 10:11 Cloudy 78 25.6 73 22.8 85 85 W 5 7 29.94 1014 9 14 0.00 0.00
10:48 am 10:48 Partly Cloudy 81 27 72 22 74 74 Calm 29.94 1014 10 16 0.00 0.00
10:53 am 10:53 Partly Cloudy 80 26.7 72 22.2 76 76 WSW 5 7 29.94 1014 10 16 0.00 0.00
11:53 am 11:53 Mostly Sunny 83 28.3 72 22.2 70 70 VRB 6 9 29.95 1014 10 16 0.00 0.00
12:18 pm 12:18 Mostly Cloudy 84 28.9 72 22.2 67 67 W 3 6 29.94 1014 10 16 0.00 0.00
12:26 pm 12:26 Partly Cloudy 84 28.9 71 21.7 65 65 SW 5 7 29.94 1014 10 16 0.00 0.00
12:53 pm 12:53 Mostly Sunny 85 29.4 71 21.7 63 63 Calm 29.94 1014 10 16 0.00 0.00
1:07 pm 13:07 Mostly Cloudy 86 30 71 21.7 61 61 NW 6 9 29.94 1014 10 16 0.00 0.00
1:14 pm 13:14 Partly Cloudy 85 29.4 70 21.1 61 61 VRB 3 6 29.94 1014 10 16 0.00 0.00
1:53 pm 13:53 Mostly Sunny 87 30.6 71 21.7 59 59 VRB 5 7 29.92 1013 10 16 0.00 0.00
2:53 pm 14:53 Mostly Sunny 88 31.1 71 21.7 57 57 WSW 7 11 29.90 1012 10 16 0.00 0.00
3:53 pm 15:53 Mostly Sunny 89 31.7 71 21.7 55 55 SW 8 13 29.90 1012 10 16 0.00 0.00
4:53 pm 16:53 Mostly Sunny 84 28.9 71 21.7 65 65 W 9 15 29.89 1012 10 16 0.00 0.00
5:53 pm 17:53 Sunny 82 27.8 70 21.1 67 67 WSW 5 7 29.89 1012 10 16 0.00 0.00
6:53 pm 18:53 Sunny 80 26.7 70 21.1 71 71 WSW 5 7 29.88 1012 10 16 0.00 0.00
7:53 pm 19:53 Sunny 79 26.1 70 21.1 74 74 VRB 3 6 29.88 1012 10 16 0.00 0.00
8:53 pm 20:53 Clear 77 25 70 21.1 79 79 WSW 5 7 29.89 1012 10 16 0.00 0.00
9:53 pm 21:53 Clear 75 23.9 69 20.6 82 82 SW 5 7 29.90 1012 10 16 0.00 0.00
10:53 pm 22:53 Clear 74 23.3 69 20.6 85 85 SW 3 6 29.90 1013 10 16 0.00 0.00
11:53 pm 23:53 Clear 73 22.8 69 20.6 87 87 SW 6 9 29.90 1013 10 16 0.00 0.00

Powered by AerisWeather